NSS-11 (26554 NORAD) Tracking and Keplerian Element Data

This shows tracking and keplerian element data for the satellite.

Feedback or suggestion? Click here.




ElementValue
Catalog26554
NameNSS-11
Epoch Orbit3949
Epoch Day354.15819238
Epoch Year2025
RAAN83.5802
Inclination1.663
Eccentricity0.0002807
Argument of Perigee179.472
Mean Anonmoly58.8923
Mean Motion1.0027218
Decay Rate4.8E-07
L11 26554U 00059A 25354.15819238 .00000048 00000+0 00000+0 0 9992
L22 26554 1.6630 83.5802 0002807 179.4720 58.8923 1.00272180 39494



Live tracking and technical data element details for NSS-11 (NORAD 26554). NSS-11 can be tracked NOW for your location showing map with azimuth and elevation plus other details from your city location.







IsCatalogInMostPopularTable: catalog: 26554, numindb: 388
Update: records affected: 1



GetName: 26554 NSS-11

Hit Count: updated at: Mon, 16 Feb 2026 02:11:18 GMT